Waarnemingen

Advertentie
Mijn weer
Avignon, Frankrijk (7563): temperatuur & dauwpunt: 18.06.2019 11:00:00 - 24.06.2019 11:00:00 (CEST)Avignon, Frankrijk (7563): temperatuur 5cm: 18.06.2019 11:00:00 - 24.06.2019 11:00:00 (CEST)Avignon, Frankrijk (7563): windsnelheid & windstoten: 18.06.2019 11:00:00 - 24.06.2019 11:00:00 (CEST)Avignon, Frankrijk (7563): windrichting: 18.06.2019 11:00:00 - 24.06.2019 11:00:00 (CEST)Avignon, Frankrijk (7563): luchtdruk: 18.06.2019 11:00:00 - 24.06.2019 11:00:00 (CEST)Avignon, Frankrijk (7563): zicht: 18.06.2019 11:00:00 - 24.06.2019 11:00:00 (CEST)Avignon, Frankrijk (7563): neerslag: 18.06.2019 11:00:00 - 24.06.2019 11:00:00 (CEST)
Datum & Tijd tt [°C] td [°C] tt 5cm [°C] ff [km/u] ff [kn] fx [km/u] fx [kn] dd ppp [hPa] vv [km] rr [mm]
24.06.2019 11:00:00 27,9 14,9 28,3 8 5 19 11 ZZO 1017,6 60 0,0
24.06.2019 10:00:00 25,8 15,2 24,5 5 3 18 10 OZO 1017,7 55 0,0
24.06.2019 09:00:00 23,3 15,6 21,5 8 4 14 8 O 1018,0 43 0,0
24.06.2019 08:00:00 20,0 15,6 17,2 3 2 5 3 O 1017,9 33 0,2
24.06.2019 07:00:00 16,9 14,5 13,0 4 2 12 7 NO 1017,8 27 0,0
24.06.2019 06:00:00 15,5 14,0 12,6 3 2 8 5 NNW 1017,0 19 0,0
24.06.2019 05:00:00 15,0 13,2 12,4 3 2 16 9 NNW 1017,1 16 0,0
24.06.2019 04:00:00 15,8 13,6 12,3 3 2 7 4 Z 1017,0 36 0,0
24.06.2019 03:00:00 16,5 15,0 12,5 7 4 8 5 ONO 1017,3 20 0,0
24.06.2019 02:00:00 16,3 14,7 12,4 0 0 6 3 N 1017,7 18 0,0
24.06.2019 01:00:00 17,4 15,0 13,4 5 3 6 4 OZO 1017,5 27 0,0
24.06.2019 00:00:00 18,4 15,6 14,7 5 3 9 5 O 1017,3 31 0,0
23.06.2019 23:00:00 20,3 16,5 17,3 6 3 13 7 O 1017,0 42 0,0
23.06.2019 22:00:00 22,6 16,8 21,3 9 5 22 12 ZW 1016,2 50 0,0
23.06.2019 21:00:00 24,2 17,0 23,6 13 7 22 12 WZW 1015,6 41 0,0
23.06.2019 20:00:00 27,0 17,8 28,0 18 10 30 16 ZW 1014,9 50 0,0
23.06.2019 19:00:00 30,7 14,3 32,7 16 9 23 13 ZW 1014,0 50 0,0
23.06.2019 18:00:00 31,1 14,3 32,3 12 6 26 14 ZW 1013,9 47 0,0
23.06.2019 17:00:00 30,7 16,7 32,4 16 9 25 13 ZW 1014,1 55 0,0
23.06.2019 16:00:00 32,3 14,4 37,5 4 2 21 11 ZW 1014,0 41 0,0
23.06.2019 15:00:00 31,1 13,8 36,1 8 4 20 11 NW 1014,4 60 0,0
23.06.2019 14:00:00 30,8 13,6 35,0 10 6 21 11 W 1014,7 48 0,0
23.06.2019 13:00:00 29,3 13,5 34,5 6 3 23 12 NW 1014,8 49 0,0
23.06.2019 12:00:00 28,7 14,5 29,7 5 3 14 8 WZW 1015,1 43 0,0
23.06.2019 11:00:00 26,0 14,5 27,1 5 3 14 8 W 1015,1 33 0,0
23.06.2019 10:00:00 24,2 14,9 23,8 4 2 14 8 NW 1014,9 42 0,0
23.06.2019 09:00:00 22,3 14,4 22,1 4 2 11 6 NNO 1014,8 56 0,0
23.06.2019 08:00:00 19,9 13,4 17,7 5 3 11 6 ONO 1014,8 57 0,0
23.06.2019 07:00:00 16,7 14,5 11,8 4 2 7 4 NNO 1014,8 42 0,0
23.06.2019 06:00:00 14,8 13,2 11,1 6 3 7 4 ONO 1014,6 48 0,0
23.06.2019 05:00:00 15,1 12,8 11,7 2 1 6 3 ZZO 1014,6 57 0,0
23.06.2019 04:00:00 16,1 13,8 13,0 3 2 8 4 OZO 1014,5 59 0,0
23.06.2019 03:00:00 16,3 13,4 13,3 3 1 8 4 ZO 1014,7 60 0,0
23.06.2019 02:00:00 17,2 13,7 14,6 4 2 6 3 ZO 1014,5 60 0,0
23.06.2019 01:00:00 18,8 14,1 14,9 3 2 14 8 NO 1014,4 60 0,0
23.06.2019 00:00:00 21,3 14,5 15,2 9 5 14 7 WNW 1014,3 60 0,0
22.06.2019 23:00:00 20,4 14,1 16,8 4 2 8 5 Z 1014,4 20 0,0
22.06.2019 22:00:00 23,6 14,0 20,0 8 5 15 8 NNW 1013,7 60 0,0
22.06.2019 21:00:00 26,4 13,5 25,4 14 7 22 12 NNW 1013,2 58 0,0
22.06.2019 20:00:00 27,5 13,1 27,5 11 6 27 15 NNW 1013,0 60 0,0
22.06.2019 19:00:00 29,0 14,0 29,9 10 6 22 12 W 1012,7 43 0,0
22.06.2019 18:00:00 30,0 11,5 32,6 13 7 30 16 NNW 1012,5 60 0,0
22.06.2019 17:00:00 29,9 11,9 34,5 14 8 29 15 NNW 1012,8 57 0,0
22.06.2019 16:00:00 29,6 12,9 34,5 16 8 29 16 NNW 1013,1 51 0,0
22.06.2019 15:00:00 29,5 12,4 33,4 13 7 32 18 N 1013,6 55 0,0
22.06.2019 14:00:00 28,3 13,4 32,6 12 7 29 16 NW 1014,1 54 0,0
22.06.2019 13:00:00 27,5 14,5 31,7 13 7 26 14 NW 1014,5 58 0,0
22.06.2019 12:00:00 26,5 15,2 27,7 16 8 31 17 WNW 1014,7 56 0,0
22.06.2019 11:00:00 25,3 14,7 25,9 14 7 30 16 NNW 1014,7 51 0,0
22.06.2019 10:00:00 23,4 14,1 23,6 17 9 29 16 N 1015,0 49 0,0
22.06.2019 09:00:00 22,2 14,3 21,5 18 10 31 17 N 1014,8 50 0,0
22.06.2019 08:00:00 20,4 15,4 18,8 12 7 22 12 NNW 1014,8 60 0,0
22.06.2019 07:00:00 18,8 15,3 17,2 9 5 16 9 NNW 1014,6 60 0,0
22.06.2019 06:00:00 18,8 15,3 16,6 7 4 18 10 WNW 1014,5 60 0,0
22.06.2019 05:00:00 19,4 15,1 17,9 10 5 20 11 NW 1014,6 60 0,0
22.06.2019 04:00:00 19,7 15,1 16,6 5 3 10 5 NW 1014,6 60 0,0
22.06.2019 03:00:00 19,5 14,7 17,6 6 3 18 10 NNW 1014,6 60 0,0
22.06.2019 02:00:00 20,7 15,3 17,9 10 5 19 11 NNW 1015,1 60 0,0
22.06.2019 01:00:00 20,7 14,8 18,5 8 4 17 9 NW 1015,2 54 0,0
22.06.2019 00:00:00 21,1 15,0 20,3 7 4 21 12 N 1015,1 60 0,0
21.06.2019 23:00:00 21,8 15,4 20,8 10 6 19 10 NW 1015,0 60 0,0
21.06.2019 22:00:00 23,3 15,9 22,0 11 6 18 10 WNW 1015,0 60 0,0
21.06.2019 21:00:00 23,6 18,9 23,5 8 4 18 10 WZW 1013,9 25 0,0
21.06.2019 20:00:00 24,2 19,3 24,4 9 5 29 16 ZW 1013,7 20 0,0
21.06.2019 19:00:00 23,9 18,8 24,8 20 11 35 19 WZW 1013,7 21 0,0
21.06.2019 18:00:00 25,5 18,7 24,2 18 10 28 15 WZW 1013,8 30 0,0
21.06.2019 17:00:00 27,1 14,8 27,7 16 8 31 17 N 1013,2 51 0,0
21.06.2019 16:00:00 29,9 14,8 32,8 8 4 23 12 WZW 1013,5 49 0,0
21.06.2019 15:00:00 29,3 14,7 33,5 7 4 23 13 NW 1013,8 60 0,0
21.06.2019 14:00:00 29,1 14,5 34,0 8 5 30 16 WNW 1014,0 60 0,0
21.06.2019 13:00:00 27,2 15,2 30,0 7 4 16 9 NNW 1014,7 60 0,0
21.06.2019 12:00:00 26,4 15,4 28,7 6 3 17 9 NW 1015,0 41 0,0
21.06.2019 11:00:00 25,1 16,0 25,5 9 5 20 11 N 1014,8 60 0,0
21.06.2019 10:00:00 23,3 16,1 23,7 5 3 14 7 NNW 1015,1 50 0,0
21.06.2019 09:00:00 22,3 16,3 21,5 5 3 12 7 WNW 1014,9 51 0,0
21.06.2019 08:00:00 20,1 16,3 19,2 6 3 10 5 WNW 1014,5 37 0,0
21.06.2019 07:00:00 18,2 16,2 15,9 0 0 11 6 N 1014,0 29 0,0
21.06.2019 06:00:00 17,3 15,8 13,8 9 5 15 8 NNW 1013,5 33 0,0
21.06.2019 05:00:00 17,8 15,8 14,7 4 2 13 7 NNO 1013,4 41 0,0
21.06.2019 04:00:00 18,4 15,5 17,0 9 5 17 9 N 1013,4 51 0,0
21.06.2019 03:00:00 19,2 16,1 18,6 11 6 24 13 NNW 1014,2 59 0,0
21.06.2019 02:00:00 19,4 15,9 18,7 13 7 24 13 N 1014,3 60 0,0
21.06.2019 01:00:00 19,8 15,4 17,9 12 6 32 17 NNW 1015,0 59 0,2
21.06.2019 00:00:00 21,6 14,3 20,0 10 6 28 15 NW 1014,9 52 0,0
20.06.2019 23:00:00 22,0 13,6 21,4 15 8 44 24 NNW 1014,2 60 0,0
20.06.2019 22:00:00 22,9 13,7 22,3 15 8 29 16 NW 1013,7 60 0,0
20.06.2019 21:00:00 24,2 13,7 23,3 15 8 31 17 NNW 1012,8 60 0,0
20.06.2019 20:00:00 25,9 14,7 25,7 23 13 38 21 NNW 1012,0 60 0,0
20.06.2019 19:00:00 28,4 13,9 29,1 27 15 42 23 NNW 1011,7 60 0,0
20.06.2019 18:00:00 29,6 13,4 31,6 9 5 17 9 NNW 1011,8 60 0,0
20.06.2019 17:00:00 29,7 13,9 32,0 6 3 18 10 WNW 1011,9 53 0,0
20.06.2019 16:00:00 28,3 13,0 28,2 7 4 11 6 N 1012,3 60 0,0
20.06.2019 15:00:00 27,7 13,6 28,8 7 4 18 10 N 1013,0 60 0,0
20.06.2019 14:00:00 28,8 14,2 33,2 9 5 23 13 NNW 1013,4 49 0,0
20.06.2019 13:00:00 26,8 14,9 31,0 9 5 21 11 NW 1014,0 45 0,0
20.06.2019 12:00:00 25,1 15,1 26,0 9 5 19 11 N 1014,1 39 0,0
20.06.2019 11:00:00 22,1 15,4 22,1 10 5 22 12 NW 1014,3 20 0,0
20.06.2019 10:00:00 20,3 15,1 18,8 10 6 21 11 NNW 1014,0 28 0,0
20.06.2019 09:00:00 18,6 15,3 16,0 5 3 31 17 N 1013,9 35 0,2
20.06.2019 08:00:00 16,3 14,8 15,6 13 7 19 10 O 1014,8 2,4 4,9
20.06.2019 07:00:00 15,5 11,7 11,3 6 3 9 5 ZZO 1015,2 44 0,0
20.06.2019 06:00:00 13,3 9,7 11,1 5 3 10 5 OZO 1014,0 52 0,0
20.06.2019 05:00:00 14,0 11,7 10,3 6 3 7 4 O 1013,9 34 0,0
20.06.2019 04:00:00 14,3 11,8 10,3 4 2 6 4 ZZW 1013,8 38 0,0
20.06.2019 03:00:00 14,3 11,3 10,9 3 2 6 4 OZO 1013,7 44 0,0
20.06.2019 02:00:00 14,7 12,0 11,0 3 2 5 3 N 1014,4 36 0,0
20.06.2019 01:00:00 16,0 11,8 11,9 2 1 9 5 O 1014,3 48 0,0
20.06.2019 00:00:00 17,0 11,7 13,0 6 4 9 5 OZO 1014,4 60 0,0
19.06.2019 23:00:00 18,5 11,1 13,5 4 2 11 6 ZO 1014,6 60 0,0
19.06.2019 22:00:00 19,5 10,2 16,1 8 4 12 7 Z 1014,2 60 0,0
19.06.2019 21:00:00 21,8 9,7 19,9 11 6 19 11 Z 1013,6 60 0,0
19.06.2019 20:00:00 25,2 9,9 25,9 13 7 26 14 Z 1013,0 59 0,0
19.06.2019 19:00:00 26,9 8,3 26,6 18 10 29 16 Z 1012,7 60 0,0
19.06.2019 18:00:00 27,8 6,5 28,3 19 10 32 18 ZZW 1012,7 60 0,0
19.06.2019 17:00:00 28,8 9,0 32,6 22 12 36 20 ZZW 1013,0 32 0,0
19.06.2019 16:00:00 29,1 10,2 32,3 22 12 37 20 ZZO 1012,9 30 0,0
19.06.2019 15:00:00 28,4 8,6 31,6 23 13 38 21 Z 1013,4 33 0,0
19.06.2019 14:00:00 28,8 9,0 33,3 25 14 41 22 Z 1013,7 36 0,0
19.06.2019 13:00:00 28,6 9,8 32,6 24 13 41 22 Z 1013,9 19 0,0
19.06.2019 12:00:00 27,7 8,5 30,6 22 12 37 20 Z 1013,9 46 0,0
19.06.2019 11:00:00 27,2 10,4 28,3 17 9 31 17 Z 1013,9 50 0,0
19.06.2019 10:00:00 25,7 9,9 25,1 14 7 27 15 ZZO 1014,0 53 0,0
19.06.2019 09:00:00 23,4 11,1 22,2 10 5 21 11 ZO 1014,4 60 0,0
19.06.2019 08:00:00 20,9 10,1 18,1 8 4 20 11 ZO 1013,9 47 0,0
19.06.2019 07:00:00 18,2 9,5 15,9 11 6 19 10 ZZO 1013,7 39 0,0
19.06.2019 06:00:00 18,0 8,8 13,0 8 4 22 12 ZO 1013,8 60 0,0
19.06.2019 05:00:00 18,1 9,4 12,0 7 4 21 11 ZO 1013,8 60 0,0
19.06.2019 04:00:00 14,9 9,7 10,9 8 5 16 9 ZZO 1014,1 60 0,0
19.06.2019 03:00:00 14,9 10,3 11,4 7 4 16 8 ZZO 1014,2 60 0,0
19.06.2019 02:00:00 16,3 10,4 10,3 8 4 18 10 ZO 1014,3 60 0,0
19.06.2019 01:00:00 16,2 10,7 10,4 4 2 7 4 ZZO 1014,7 59 0,0
19.06.2019 00:00:00 16,5 10,8 11,4 4 2 6 3 O 1015,3 60 0,0
18.06.2019 23:00:00 18,4 10,2 13,1 3 2 9 5 OZO 1015,5 58 0,0
18.06.2019 22:00:00 20,9 10,1 14,8 5 3 14 8 Z 1015,0 60 0,0
18.06.2019 21:00:00 23,4 10,8 22,6 10 6 18 10 Z 1014,7 60 0,0
18.06.2019 20:00:00 26,8 11,7 28,6 11 6 27 15 ZZW 1014,3 56 0,0
18.06.2019 19:00:00 28,1 11,2 30,6 19 11 40 22 Z 1014,2 39 0,0
18.06.2019 18:00:00 29,7 10,3 30,6 21 11 37 20 Z 1014,0 41 0,0
18.06.2019 17:00:00 30,7 7,8 32,2 24 13 39 21 Z 1013,9 35 0,0
18.06.2019 16:00:00 31,1 8,1 35,3 24 13 40 21 Z 1014,0 37 0,0
18.06.2019 15:00:00 30,9 8,0 32,6 23 12 35 19 Z 1014,5 44 0,0
18.06.2019 14:00:00 31,3 10,1 32,2 23 13 36 19 Z 1014,7 53 0,0
18.06.2019 13:00:00 30,4 9,8 33,2 15 8 29 15 Z 1014,7 20 0,0
18.06.2019 12:00:00 29,8 12,2 30,7 15 8 27 15 Z 1014,8 60 0,0
18.06.2019 11:00:00 27,9 13,8 27,4 9 5 19 10 Z 1014,8 58 0,0

tt = temperatuur
td = dauwpunt
tt 5cm = temperatuur 5cm
ff = windsnelheid
fx = windstoten
dd = windrichting
ppp = luchtdruk
vv = zicht
rr = neerslag

Weerstations in de omgeving